Flag for U.S.A. Weather past 2 weeks in Trenton, New Jersey, U.S.A.

Now
34 °F

Mostly cloudy.


Feels Like: 30 °F
Forecast: 20 / 42 °F
Wind: 5 mph from Southeast

Location: Mercer County Airport

Current Time: Feb 1, 2015 at 9:31:23 PM

Latest Report: Feb 1, 2015 at 8:53 PM


Visibility: 7 mi

Pressure: 30.03 "Hg

Humidity: 73%

Dew point: 26 °F

Location of TrentonLocation

Historic Weather in Trenton — Graph

°F

Trenton temperature yesterday

Maximum temperature yesterday: 27 °F (at 3:53 PM)
Minimum temperature yesterday: 12 °F (at 6:53 AM)
Average temperature yesterday: 19 °F

Past Weeks' High & Low Weather Summary

 TemperatureHumidityPressure
High43 °F (Jan 25, 12:53 PM)97% (Jan 18, 12:53 PM)30.34 "Hg (Jan 18, 12:53 PM)
Low11 °F (Jan 29, 5:53 AM)27% (Jan 28, 5:53 PM)29.30 "Hg (Jan 24, 2:53 PM)
Average30 °F65%29.97 "Hg
* Reported Jan 17 7:53 PM — Feb 1 7:53 PM, Trenton, Weather by CustomWeather, © 2014

Note: Actual official high and low records may vary slightly from our data, if they occured in-between our weather recording intervals... More about our weather records

Advertising

Trenton weather history for previous 24 hours

 ConditionsComfort  
Time TempWeatherWind HumidityBarometerVisibility
7:53 PM
Feb 1
35 °FMostly cloudy.3 mph70%30.07 "Hg8 mi
6:53 PM35 °FLight snow. Overcast.6 mph67%30.08 "Hg7 mi
5:53 PM35 °FOvercast.No wind61%30.11 "Hg9 mi
4:53 PM36 °FOvercast.No wind59%30.10 "Hg9 mi
3:53 PM36 °FOvercast.5 mph57%30.11 "Hg9 mi
2:53 PM36 °FMostly cloudy.7 mph52%30.14 "Hg9 mi
1:53 PM36 °FMore clouds than sun.6 mph50%30.14 "Hg10 mi
12:53 PM36 °FOvercast.9 mph48%30.16 "Hg10 mi
11:53 AM36 °FPartly sunny.9 mph48%30.19 "Hg10 mi
10:53 AM33 °FOvercast.7 mph52%30.22 "Hg10 mi
9:53 AM30 °FOvercast.6 mph54%30.23 "Hg10 mi
8:53 AM28 °FOvercast.5 mph56%30.22 "Hg10 mi
7:53 AM26 °FOvercast.3 mph57%30.22 "Hg10 mi
6:53 AM25 °FOvercast.5 mph60%30.22 "Hg10 mi
5:53 AM25 °FOvercast.6 mph55%30.22 "Hg10 mi
4:53 AM23 °FOvercast.7 mph60%30.22 "Hg10 mi
3:53 AM18 °FOvercast.3 mph71%30.20 "Hg10 mi
2:53 AM16 °FPassing clouds.No wind65%30.21 "Hg10 mi
1:53 AM19 °FClear.3 mph57%30.21 "Hg10 mi
12:53 AM19 °FClear.6 mph57%30.22 "Hg10 mi
11:53 PM
Jan 31
20 °FClear.3 mph55%30.22 "Hg10 mi
10:53 PM20 °FClear.7 mph55%30.21 "Hg10 mi
9:53 PM21 °FClear.6 mph50%30.22 "Hg10 mi
Weather by CustomWeather, © 2014

See weather overviewHow to use our weather pages